Weather in Ormara

Pakistan     25°15′32″N   64°38′05″E
temp.,
°C
wind,
m/s
gust,
m/s
humid.,
%
clouds,
%
prec.,
mm/h
press.,
hPa
HPBL,
m
11 may, tue
tue1123:00+29w6107960 0.0 1005538
02:00+29wsw8117476 0.0 1003364
05:00+29wsw1013665 0.0 1003293
08:00+29w912620 0.0 1005556
11:00+30wsw1012560 0.0 1006442
14:00+30wsw1113630 0.0 1003439
17:00+30wsw1317660 0.0 1001429
20:00+29wsw1217750 0.0 1002512
12 may, wed
wed1223:00+29w1014795 0.0 1004537
02:00+29w1114761 0.0 1002366
05:00+29wnw912745 0.0 1002304
08:00+30wnw79590 0.0 1004229
11:00+32wsw66470 0.0 1003472
14:00+30wsw1213640 0.0 1001427
17:00+30wsw1114690 0.0 1000346
20:00+29w914710 0.0 1001378
13 may, thu
thu1323:00+29w1115720 0.0 1001391
02:00+29w1014745 0.0 1000357
05:00+29w1013750 0.0 1000321
08:00+29w89742 0.0 1003361
11:00+33wsw78410 0.0 1002375
14:00+32wsw1011570 0.0 999709
17:00+30wsw1113740 0.0 998362
20:00+29wsw1115810 0.0 999400
14 may, fri
fri1423:00+29w101484100 0.0 1000462
02:00+29w812795 0.0 999346
05:00+29wnw687116 0.0 999179
08:00+30wnw45505 0.0 100190
11:00+34sw56340 0.0 1000427
14:00+33sw89540 0.0 997676
17:00+33wsw1112540 0.0 996723
20:00+31w1014670 0.0 998209
15 may, sat
sat1523:00+30w1015693 0.0 999275
02:00+31wnw68433 0.0 99891
05:00+31wnw33340 0.0 99923
08:00+31nne22360 0.0 100150
11:00+31sw64340 0.0 1001293
14:00+30sw910490 0.0 999222
17:00+31wsw913560 0.0 998251
20:00